This is the latest recevied weather packets stored in our database for station/object W7TTE. If no packets are shown the sender has not sent any weather packets the latest 10 day(s).
| Time | Temp. | Humidity | Pressure | Rain* | Wind** | Luminosity | Snow |
|---|---|---|---|---|---|---|---|
| 1778014855 | 24.44° C | 30% | 1013.4 hPa | 0 mm | - | 314 W/m² | - |
| 1778014553 | 24.44° C | 29% | 1013.5 hPa | 0 mm | - | 230 W/m² | - |
| 1778014250 | 25° C | 30% | 1013.6 hPa | 0 mm | - | 866 W/m² | - |
| 1778013947 | 25° C | 30% | 1013.5 hPa | 0 mm | - | 848 W/m² | - |
| 1778013644 | 25.56° C | 29% | 1013.5 hPa | 0 mm | - | 172 W/m² | - |
| 1778013341 | 25.56° C | 29% | 1013.8 hPa | 0 mm | - | 814 W/m² | - |
| 1778013038 | 25.56° C | 29% | 1013.4 hPa | 0 mm | - | 855 W/m² | - |
| 1778012734 | 25.56° C | 29% | 1013.4 hPa | 0 mm | - | 928 W/m² | - |
| 1778012430 | 25° C | 30% | 1013.6 hPa | 0 mm | - | 881 W/m² | - |
| 1778012127 | 24.44° C | 30% | 1013.6 hPa | 0 mm | - | 911 W/m² | - |
| 1778011825 | 25° C | 30% | 1013.5 hPa | 0 mm | - | 239 W/m² | - |
| 1778011523 | 25° C | 30% | 1013.6 hPa | 0 mm | - | 249 W/m² | - |
| 1778011219 | 24.44° C | 30% | 1013.6 hPa | 0 mm | - | 959 W/m² | - |
| 1778010915 | 25° C | 31% | 1013.8 hPa | 0 mm | - | 834 W/m² | - |
| 1778010613 | 25° C | 30% | 1013.7 hPa | 0 mm | - | 889 W/m² | - |
| 1778010310 | 25° C | 30% | 1014 hPa | 0 mm | - | 842 W/m² | - |
| 1778010010 | 25° C | 30% | 1013.9 hPa | 0 mm | - | 834 W/m² | - |
| 1778009708 | 25° C | 30% | 1013.8 hPa | 0 mm | - | 837 W/m² | - |
| 1778009405 | 24.44° C | 30% | 1013.8 hPa | 0 mm | - | 822 W/m² | - |
| 1778009103 | 25° C | 30% | 1013.8 hPa | 0 mm | - | 816 W/m² | - |
| 1778008801 | 25° C | 30% | 1013.9 hPa | 0 mm | - | 815 W/m² | - |
| 1778008499 | 25° C | 30% | 1013.9 hPa | 0 mm | - | 814 W/m² | - |
| 1778008196 | 24.44° C | 31% | 1014 hPa | 0 mm | - | 829 W/m² | - |
| 1778007890 | 24.44° C | 32% | 1014 hPa | 0 mm | - | 831 W/m² | - |
| 1778007586 | 24.44° C | 32% | 1014.1 hPa | 0 mm | - | 820 W/m² | - |
* Rain latest hour (hover to see other rain measurements)
** Current wind speed in m/s (hover to see current wind gust speed)